Regional Weather Roundup
Issued by NWS

Home | Current Version | Previous Version | Graphics & Text | Print | Product List | Glossary On
Versions: 1 2 3 4 5 6 7 8 9 10 11 12 13 14 15 16 17 18 19 20 21 22 23 24 25 26 27 28 29 30 31 32 33 34 35 36 37 38 39 40 41 42 43 44 45 46 47 48 49 50
066
ASUS43 KIND 121609
RWRIN

WEATHER ROUNDUP FOR INDIANA
NATIONAL WEATHER SERVICE INDIANAPOLIS IN
1100 AM EST FRI FEB 12 2016

NOTE: "FAIR" INDICATES FEW OR NO CLOUDS BELOW 12,000 FEET WITH NO
SIGNIFICANT WEATHER AND/OR OBSTRUCTIONS TO VISIBILITY.

* - STATION DOES NOT REPORT WEATHER SUCH AS PRECIPITATION OR FOG.

+ - STATION NOT QUALITY CONTROLLED BY THE NATIONAL WEATHER SERVICE.
    USE DATA WITH CAUTION...ESPECIALLY DEWPOINT AND RELATIVE
    HUMIDITY OBSERVATIONS.

INZ001>003-010>013-019-020-121700-
NORTHWEST INDIANA

CITY           SKY/WX    TMP DP  RH WIND       PRES   REMARKS
GARY /AIRPORT/ LGT SNOW  23  14  68 W17G29    30.15S WCI   9
KNOX *+        CLOUDY    23  12  63 W16       30.12F WCI  10
LA PORTE +     FLURRIES  23  13  64 W13G22    30.11F WCI  11
MICHIGAN CITY+ LGT SNOW  23  14  68 W7G20     30.12S WCI  15
MONTICELLO +   CLOUDY    23  14  68 W10       30.16R WCI  13
RENSSELAER +   CLOUDY    25  16  68 W15       30.15F WCI  12
VALPARAISO     CLOUDY    22  11  62 W13G23    30.12F WCI  10

$$

LMZ046-743>745-121700-
SOUTHERN LAKE MICHIGAN

STATION/POSITION TIME  TEMP    WIND        PRES    WAVE
                       AIR SEA DIR/SP/G            HT
                 (UTC) (F)     (DEG/KT/KT) (MB)    (FT)
BURNS HARBOR     1520   22     280/ 18/ 22 1020.3F
MICHIGAN CITY    1500   22     250/ 20/ 24   N/A

$$

INZ004-005-014>016-021>024-121700-
NORTH CENTRAL INDIANA

CITY           SKY/WX    TMP DP  RH WIND       PRES   REMARKS
ELKHART        FLURRIES  19  10  68 W15       30.09F WCI   5
GOSHEN         CLOUDY    21  12  68 W16G24    30.08F WCI   7
LOGANSPORT +   LGT SNOW  23  14  68 W12G18    30.16R WCI  12
PERU/GRISSOM   FLURRIES  22  16  75 W14       30.13F WCI  10
ROCHESTER +    CLOUDY    27  12  54 W13G20    30.12F WCI  16
SOUTH BEND     LGT SNOW  20  12  71 W12       30.09F WCI   8
WARSAW +       CLOUDY    23  12  63 W18       30.10F WCI   9

$$

INZ006>009-017-018-025>027-121700-
NORTHEAST INDIANA

CITY           SKY/WX    TMP DP  RH WIND       PRES   REMARKS
ANGOLA *+      CLOUDY    19  12  73 W12       30.04F WCI   7
AUBURN +       CLOUDY    23  12  63 W13       30.08F WCI  11
FORT WAYNE     CLOUDY    22  10  60 W15       30.11F WCI   9
HUNTINGTON +   CLOUDY    22   7  53 W14G20    30.12S WCI   9

$$

INZ028-029-035-036-043>045-051>053-121700-
WEST CENTRAL INDIANA

CITY           SKY/WX    TMP DP  RH WIND       PRES   REMARKS
GREENCASTLE +  CLOUDY    23   9  54 W7        30.18S WCI  15
LAFAYETTE      CLOUDY    23  16  74 W12       30.18R WCI  12
TERRE HAUTE    CLOUDY    25  16  68 W9        30.20F WCI  15

$$

INZ030>032-037>040-046>048-054>057-064-065-121700-
CENTRAL INDIANA

CITY           SKY/WX    TMP DP  RH WIND       PRES   REMARKS
ANDERSON       CLOUDY    25  10  54 W12       30.14F WCI  14
COLUMBUS       CLOUDY    27  16  63 SW9       30.17F WCI  17
FISHERS *+     CLOUDY    25  14  63 W10G17    30.15  WCI  15
FRANKFORT +    FLURRIES  24  11  56 W15       30.17S WCI  12
GREENWOOD *+   CLOUDY    25  14  63 W9        30.16F WCI  15
INDIANAPOLIS   CLOUDY    25  11  55 W12       30.15F WCI  14
-EAGLE CREEK   CLOUDY    24  12  60 W12       30.15F WCI  13
KOKOMO *+      CLOUDY    21  12  68 W17       30.15R WCI   7
MARION +       CLOUDY    23   5  47 W14       30.14S WCI  10
MT COMFORT *+  CLOUDY    25   9  50 W12       30.14F WCI  14
SHELBYVILLE    CLOUDY    25  12  58 W13       30.14F WCI  14
ZIONSVILLE +   CLOUDY    23  12  63 W13       30.15S WCI  11

$$

INZ033-034-041-042-049-050-058-059-121700-
EAST CENTRAL INDIANA

CITY           SKY/WX    TMP DP  RH WIND       PRES   REMARKS
MUNCIE         CLOUDY    24  10  55 W14       30.13S WCI  12

$$

INZ060-061-067>069-081>083-085>088-121700-
SOUTHWEST INDIANA

CITY           SKY/WX    TMP DP  RH WIND       PRES   REMARKS
EVANSVILLE     CLOUDY    28  21  75 CALM      30.25S
HUNTINGBURG *+ CLOUDY    28  18  64 CALM      30.23S
WASHINGTON +   CLOUDY    27  19  72 W5        30.22S WCI  22

$$

INZ062-063-066-070>080-084-089>092-121700-
SOUTH CENTRAL AND SOUTHEAST INDIANA

CITY           SKY/WX    TMP DP  RH WIND       PRES   REMARKS
BEDFORD +      CLOUDY    27  19  74 SW7       30.19F WCI  19
BLOOMINGTON    CLOUDY    25  15  66 W8        30.17F WCI  16
MADISON *+     CLOUDY    28  18  64 SW5       30.19F WCI  23
NORTH VERNON + CLOUDY    27  16  63 CALM      30.17F
SEYMOUR +      CLOUDY    30  16  55 W9        30.19S WCI  22

$$





USA.gov is the U.S. government's official web portal to all federal, state and local government web resources and services.